DW7214 Weather Reports


time (UTC)temp
F
wind
direction
speed
knots
gust
knots
rain 1hr
in
rain 24hr
in
rain mn
in
humidity
%
barometer
mb
20260904083032 53 238 0.0 0.0 0.00 0.90 0.00 94 1010.7
20260904081514 53 234 0.0 2.6 0.00 0.90 0.00 95 1010.8
20260904080024 53 234 0.9 2.6 0.00 0.90 0.00 95 1010.7
20260904074530 54 230 0.0 0.0 0.00 0.90 0.00 95 1010.8
20260904073034 54 242 0.0 0.0 0.00 0.90 0.00 95 1010.8
20260904071530 54 232 0.0 0.0 0.00 0.90 0.00 95 1010.8
20260904070016 54 234 0.0 0.0 0.00 0.90 0.00 95 1010.7
20260904064520 54 232 0.0 0.0 0.00 0.90 0.90 95 1010.6
20260904063028 54 226 0.0 0.0 0.00 0.90 0.90 95 1010.6
20260904061529 54 233 0.0 0.0 0.00 0.90 0.90 95 1010.7
20260904060031 55 231 0.0 0.9 0.00 0.90 0.90 95 1010.7
20260904054518 55 234 0.0 1.7 0.00 0.90 0.90 95 1010.8
20260904053023 55 227 0.9 1.7 0.00 0.90 0.90 95 1010.8
20260904051532 55 234 0.0 1.7 0.00 0.90 0.90 95 1010.9
20260904050037 55 236 0.0 1.7 0.00 0.90 0.90 94 1010.9
20260904044541 55 229 0.0 0.0 0.00 0.90 0.90 94 1010.9
20260904043018 55 270 0.0 0.0 0.00 0.90 0.90 94 1010.9
20260904041506 55 239 0.0 0.0 0.00 0.90 0.90 94 1010.8
20260904040008 55 238 0.0 0.0 0.01 0.90 0.90 94 1010.8
20260904034511 55 238 0.0 0.0 0.01 0.90 0.90 93 1010.7
20260904033020 55 238 0.0 0.0 0.04 0.90 0.90 93 1010.5
20260904031504 55 9 0.0 0.0 0.07 0.90 0.90 92 1010.4
20260904030005 56 9 0.0 0.0 0.08 0.89 0.89 91 1010.3
20260904024510 56 9 0.0 1.7 0.11 0.89 0.89 90 1010.2
20260904023013 57 40 0.0 0.0 0.09 0.86 0.86 91 1010.2
20260904021518 57 40 0.0 0.0 0.06 0.83 0.83 91 1010.1
20260904020004 57 40 0.0 0.0 0.04 0.81 0.81 91 1010.1
20260904014506 57 40 0.0 0.0 0.02 0.78 0.78 89 1010.0
20260904013012 58 40 0.0 1.7 0.02 0.77 0.77 90 1010.0
20260904011516 58 51 0.9 3.5 0.02 0.77 0.77 89 1009.9
20260904010024 58 37 0.9 3.5 0.03 0.77 0.77 89 1010.1
20260904004505 58 280 0.0 0.0 0.03 0.76 0.76 90 1010.0
20260904003008 58 280 0.0 0.0 0.02 0.75 0.75 89 1010.0
20260904001515 58 90 0.0 0.0 0.02 0.75 0.75 89 1010.1
20260904000020 58 121 0.0 0.0 0.01 0.74 0.74 86 1010.3
20260903234528 58 194 0.0 1.7 0.00 0.73 0.73 85 1010.3
20260903233008 58 180 0.0 1.7 0.00 0.73 0.73 86 1010.2
20260903231511 58 57 0.9 2.6 0.00 0.73 0.73 84 1010.3
20260903230022 58 36 0.0 2.6 0.01 0.74 0.73 87 1010.3
20260903224523 57 108 0.0 2.6 0.01 0.74 0.73 88 1010.4
20260903223005 56 34 0.0 2.6 0.03 0.74 0.73 89 1010.6
20260903221508 57 37 0.9 2.6 0.04 0.74 0.73 90 1010.7
20260903220022 57 65 0.0 2.6 0.03 0.74 0.72 90 1010.7
20260903214525 57 118 0.9 4.3 0.04 0.74 0.72 88 1010.7
20260903213030 57 87 0.9 3.5 0.02 0.81 0.70 88 1010.5
20260903211509 58 153 0.0 2.6 0.01 0.83 0.69 89 1010.6
20260903210014 58 57 0.0 4.3 0.01 0.83 0.69 90 1010.5
20260903204517 57 257 0.9 5.2 0.03 0.82 0.68 89 1010.7
20260903203027 58 121 1.7 7.0 0.09 0.82 0.68 88 1010.7
20260903201532 57 38 0.9 3.5 0.13 0.82 0.68 1010.6
20260903200033 56 96 0.9 3.5 0.19 0.82 0.68 90 1010.6
20260903194533 56 113 0.0 5.2 0.18 0.79 0.65 92 1010.7
20260903193030 56 117 0.0 6.1 0.12 0.73 0.58 92 1010.6
20260903191544 56 109 1.7 4.3 0.08 0.70 0.55 91 1010.6
20260903190030 58 214 1.7 8.7 0.02 0.65 0.49 87 1010.8
20260903184513 59 146 3.5 7.8 0.00 0.63 0.47 86 1010.4
20260903183033 58 38 0.0 7.0 0.00 0.65 0.47 87 1010.4
20260903181528 57 44 0.9 5.2 0.00 0.73 0.47 89 1010.6
20260903180036 58 188 2.6 8.7 0.00 0.76 0.47 88 1010.5
20260903174520 58 146 1.7 4.3 0.00 0.76 0.47 88 1010.4
20260903173018 58 9 0.9 3.5 0.00 0.77 0.47 90 1010.4
20260903171528 57 161 1.7 7.0 0.01 0.81 0.47 91 1010.3
20260903170031 57 111 0.9 5.2 0.04 0.84 0.47 91 1010.3
20260903164530 57 98 0.9 4.3 0.05 0.86 0.47 93 1010.4
20260903163019 56 77 0.0 2.6 0.06 0.90 0.47 94 1010.6
20260903161533 55 109 0.9 1.7 0.10 0.93 0.46 94 1010.7
20260903160027 55 186 0.0 7.0 0.10 0.94 0.43 93 1011.0
20260903154533 55 111 0.0 2.6 0.11 0.95 0.42 94 1011.0
20260903153030 54 215 0.0 3.5 0.14 0.95 0.41 94 1011.0
20260903151522 54 103 0.9 5.2 0.10 0.90 0.36 94 1011.0
20260903150029 54 135 0.9 3.5 0.07 0.87 0.33 94 1010.9
20260903144530 54 120 2.6 9.6 0.06 0.85 0.31 93 1010.8
20260903143038 54 90 1.7 8.7 0.03 0.81 0.27 94 1010.5
20260903141532 54 134 0.9 5.2 0.02 0.80 0.26 94 1010.2
20260903140026 54 76 0.9 4.3 0.04 0.80 0.26 94 1010.2
20260903134528 54 188 0.0 3.5 0.04 0.79 0.25 94 1010.1
20260903133031 54 168 1.7 5.2 0.05 0.78 0.24 94 1010.0
20260903131536 54 114 1.7 7.0 0.08 0.78 0.24 94 1009.8
20260903130024 54 95 0.0 2.6 0.15 0.76 0.22 94 1009.9
20260903124547 54 90 0.9 5.2 0.16 0.75 0.21 94 1009.9
20260903123029 54 124 0.9 3.5 0.16 0.73 0.19 93 1010.0
20260903121533 54 105 0.0 7.8 0.14 0.70 0.16 93 1010.2
20260903120024 55 119 0.0 5.2 0.07 0.61 0.07 93 1010.2
20260903114526 55 115 0.0 2.6 0.05 0.58 0.05 93 1010.2
20260903113032 55 181 0.9 6.1 0.03 0.57 0.03 92 1010.2
20260903111532 55 148 0.9 7.0 0.02 0.56 0.02 92 1010.2
20260903110019 55 148 0.9 5.2 0.00 0.54 0.00 92 1010.2
20260903104527 55 169 1.7 7.0 0.00 0.54 0.00 92 1010.0
20260903103030 55 175 3.5 8.7 0.00 0.54 0.00 91 1010.1
20260903101535 55 119 0.9 4.3 0.00 0.54 0.00 91 1010.2
20260903100023 55 173 0.0 6.1 0.00 0.54 0.00 91 1010.1
20260903094524 55 160 1.7 6.1 0.00 0.54 0.00 91 1010.1
20260903093004 55 5 0.9 5.2 0.00 0.54 0.00 92 1010.1
20260903091512 55 205 0.0 5.2 0.00 0.54 0.00 92 1010.2
20260903090011 55 166 0.9 4.3 0.00 0.54 0.00 91 1010.2
20260903084520 55 96 1.7 7.8 0.00 0.54 0.00 92 1010.4